Weather reports worldwide

Advertisment
Waibstadt, Germany (10733): temperature & dewpoint: 12.01.2020 13:00:00 - 18.01.2020 13:00:00 (CET)Waibstadt, Germany (10733): temperature 5cm & temperature -5cm: 12.01.2020 13:00:00 - 18.01.2020 13:00:00 (CET)Waibstadt, Germany (10733): temperature -20cm & temperature -100cm: 12.01.2020 13:00:00 - 18.01.2020 13:00:00 (CET)Waibstadt, Germany (10733): wind speed & gusts: 12.01.2020 13:00:00 - 18.01.2020 13:00:00 (CET)Waibstadt, Germany (10733): wind direction: 12.01.2020 13:00:00 - 18.01.2020 13:00:00 (CET)Waibstadt, Germany (10733): reduced air pressure: 12.01.2020 13:00:00 - 18.01.2020 13:00:00 (CET)Waibstadt, Germany (10733): visibility: 12.01.2020 13:00:00 - 18.01.2020 13:00:00 (CET)Waibstadt, Germany (10733): sunshine duration: 12.01.2020 13:00:00 - 18.01.2020 13:00:00 (CET)Waibstadt, Germany (10733): precipitation: 12.01.2020 13:00:00 - 18.01.2020 13:00:00 (CET)
Date & Time tt [°C] td [°C] tt 5cm [°C] tt -5cm [°C] tt -20cm [°C] tt -100cm [°C] ff [km/h] ff [kn] fx [km/h] fx [kn] dd ppp [hPa] vv [km] sd [min] rr [mm]
18.01.2020 13:00:00 3,3 1,3 3,2 5,3 4,7 6,9 27 15 42 23 WSW 1027,7 6 22 0,5
18.01.2020 12:00:00 5,3 2,2 6,1 5,0 4,6 6,9 16 8 29 16 WSW 1027,9 38 0 0,0
18.01.2020 11:00:00 5,2 2,2 6,4 4,3 4,6 6,9 18 10 28 15 WSW 1028,0 38 40 0,0
18.01.2020 10:00:00 3,9 1,5 3,7 3,0 4,7 6,9 8 4 24 13 W 1027,4 47 12 0,0
18.01.2020 09:00:00 3,7 1,5 2,2 3,1 4,8 6,9 18 10 28 15 WSW 1027,3 41 0 0,0
18.01.2020 08:00:00 3,4 1,4 2,1 3,3 4,8 6,9 18 10 34 19 W 1027,2 42 0 0,0
18.01.2020 07:00:00 4,3 1,7 3,2 3,6 4,9 6,9 21 11 35 19 W 1027,0 43 0 0,0
18.01.2020 06:00:00 4,7 2,3 3,8 3,8 5,0 6,9 19 10 30 16 W 1026,4 43 0 0,0
18.01.2020 05:00:00 4,7 2,5 3,5 3,8 5,1 6,9 20 11 29 16 W 1025,8 44 0 0,0
18.01.2020 04:00:00 4,8 3,0 3,7 3,8 5,2 6,9 18 10 26 14 W 1025,5 43 0 0,0
18.01.2020 03:00:00 5,0 3,2 3,5 4,0 5,3 6,9 16 9 24 13 WSW 1025,2 45 0 0,0
18.01.2020 02:00:00 4,5 2,4 1,4 4,3 5,3 6,9 12 6 29 16 W 1024,2 48 0 0,0
18.01.2020 01:00:00 5,9 4,1 4,0 4,9 5,3 6,9 13 7 34 19 W 1023,6 34 0 0,0
18.01.2020 00:00:00 7,2 5,0 6,5 5,4 5,3 6,9 21 11 36 20 W 1022,9 39 0 0,0
17.01.2020 23:00:00 7,2 5,7 6,4 5,5 5,3 6,9 21 12 31 17 WSW 1022,0 28 0 0,0
17.01.2020 22:00:00 7,3 5,7 6,6 5,5 5,2 6,9 21 11 33 18 WSW 1021,7 31 0 0,0
17.01.2020 21:00:00 7,5 5,8 6,9 5,6 5,2 6,8 19 10 35 19 WSW 1021,2 44 0 0,0
17.01.2020 20:00:00 7,7 5,7 7,1 5,5 5,1 6,8 22 12 32 17 WSW 1020,7 45 0 0,0
17.01.2020 19:00:00 7,5 5,3 6,8 5,4 5,1 6,8 18 10 33 18 WSW 1020,3 47 0 0,0
17.01.2020 18:00:00 7,4 5,1 6,6 5,5 5,0 6,8 17 9 34 19 WSW 1019,9 31 0 0,0
17.01.2020 17:00:00 7,7 4,1 6,6 5,6 4,9 6,8 18 10 29 16 WSW 1019,4 47 0 0,0
17.01.2020 16:00:00 7,0 3,8 6,5 5,8 4,8 6,8 3 2 8 4 SW 1019,4 22 0 0,0
17.01.2020 15:00:00 7,4 4,0 7,3 5,9 4,6 6,8 4 2 7 4 E 1019,0 22 0 0,0
17.01.2020 14:00:00 7,1 3,3 7,6 5,9 4,3 6,8 2 1 6 3 E 1019,4 25 10 0,0
17.01.2020 13:00:00 6,1 2,4 6,7 5,3 4,1 6,8 3 2 10 5 E 1020,0 22 35 0,0
17.01.2020 12:00:00 5,2 2,3 6,6 4,1 4,0 6,8 7 4 11 6 E 1020,7 17 26 0,0
17.01.2020 11:00:00 3,0 1,0 4,5 2,9 4,0 6,8 7 4 10 6 E 1021,7 11 49 0,0
17.01.2020 10:00:00 1,4 0,1 2,2 1,7 4,1 6,8 8 4 13 7 E 1022,0 7 45 0,0
17.01.2020 09:00:00 0,8 0,2 0,0 1,5 4,2 6,8 8 4 12 7 E 1022,1 4,9 0 0,0
17.01.2020 08:00:00 0,0 -0,4 -1,6 1,6 4,3 6,8 8 5 13 7 E 1022,2 4,8 0 0,0
17.01.2020 07:00:00 0,2 -0,2 -1,7 1,7 4,5 6,8 6 4 10 5 E 1022,5 4,0 0 0,0
17.01.2020 06:00:00 0,6 0,2 -1,9 1,8 4,7 6,8 6 4 9 5 E 1022,7 2,9 0 0,0
17.01.2020 05:00:00 1,3 0,9 -1,4 1,9 4,8 6,8 5 3 7 4 ESE 1023,1 11 0 0,0
17.01.2020 04:00:00 1,7 1,1 -1,2 2,1 5,0 6,8 6 3 9 5 E 1023,7 12 0 0,0
17.01.2020 03:00:00 2,4 1,5 -0,5 2,5 5,2 6,8 8 5 10 5 ESE 1023,9 16 0 0,0
17.01.2020 02:00:00 3,3 2,2 -0,6 2,8 5,4 6,8 5 3 11 6 E 1024,2 27 0 0,0
17.01.2020 01:00:00 4,1 2,6 0,2 3,1 5,6 6,8 8 4 11 6 E 1024,5 30 0 0,0
17.01.2020 00:00:00 4,2 2,8 -0,2 3,5 5,8 6,8 6 3 11 6 E 1025,1 29 0 0,0
16.01.2020 23:00:00 5,7 3,7 1,6 3,9 6,0 6,8 5 3 12 6 E 1025,4 33 0 0,0
16.01.2020 22:00:00 6,1 4,1 2,0 4,4 6,2 6,8 8 4 14 7 E 1026,0 37 0 0,0
16.01.2020 21:00:00 6,9 4,5 2,6 4,9 6,4 6,8 8 4 11 6 E 1026,3 37 0 0,0
16.01.2020 20:00:00 7,3 4,7 3,1 5,3 6,5 6,8 8 5 13 7 E 1026,5 38 0 0,0
16.01.2020 19:00:00 7,9 4,9 3,5 5,9 6,7 6,8 6 3 14 7 E 1026,5 37 0 0,0
16.01.2020 18:00:00 9,3 4,9 3,9 6,5 6,7 6,8 8 4 14 7 E 1026,4 56 0 0,0
16.01.2020 17:00:00 11,1 4,8 6,8 7,4 6,7 6,8 8 4 13 7 SE 1026,5 57 32 0,0
16.01.2020 16:00:00 12,2 4,3 9,6 8,2 6,6 6,8 8 4 13 7 ESE 1026,7 63 60 0,0
16.01.2020 15:00:00 13,1 4,6 13,2 8,7 6,4 6,8 8 4 14 7 ESE 1026,8 53 60 0,0
16.01.2020 14:00:00 13,0 5,1 14,0 9,1 6,2 6,8 12 6 18 10 SE 1027,2 38 60 0,0
16.01.2020 13:00:00 12,7 4,9 14,5 9,0 5,9 6,8 11 6 16 8 ESE 1027,9 75 60 0,0
16.01.2020 12:00:00 11,9 5,0 15,3 8,2 5,7 6,8 6 3 8 4 E 1028,5 42 60 0,0
16.01.2020 11:00:00 9,8 4,9 13,3 7,1 5,6 6,8 5 3 8 5 E 1029,3 48 60 0,0
16.01.2020 10:00:00 9,7 4,9 10,7 6,0 5,6 6,8 4 2 5 3 SSE 1029,3 59 44 0,0
16.01.2020 09:00:00 8,7 4,9 4,1 5,5 5,6 6,8 2 1 6 3 S 1029,2 48 0 0,0
16.01.2020 08:00:00 8,9 4,7 7,1 5,8 5,6 6,8 3 2 18 10 SW 1028,7 58 0 0,0
16.01.2020 07:00:00 9,7 4,7 7,8 5,8 5,6 6,7 13 7 23 12 SW 1028,1 59 0 0,0
16.01.2020 06:00:00 9,8 4,5 7,4 6,1 5,6 6,8 15 8 23 12 WSW 1027,6 64 0 0,0
16.01.2020 05:00:00 10,3 4,8 8,8 6,2 5,5 6,8 16 9 29 15 WSW 1027,4 65 0 0,0
16.01.2020 04:00:00 10,7 4,7 9,1 6,1 5,5 6,7 18 10 29 16 WSW 1026,8 63 0 0,0
16.01.2020 03:00:00 10,7 4,7 9,2 6,0 5,4 6,7 20 11 30 16 WSW 1026,5 56 0 0,0
16.01.2020 02:00:00 10,8 4,8 9,1 6,0 5,4 6,7 18 10 33 18 W 1025,8 63 0 0,0
16.01.2020 01:00:00 10,7 4,8 8,5 5,9 5,4 6,7 19 10 31 17 WSW 1025,3 61 0 0,0
16.01.2020 00:00:00 11,2 4,1 9,2 5,9 5,3 6,7 14 8 30 16 W 1024,6 66 0 0,0
15.01.2020 23:00:00 11,5 3,8 9,5 5,8 5,3 6,7 14 8 27 14 WSW 1023,6 67 0 0,0
15.01.2020 22:00:00 11,0 3,7 9,2 5,6 5,3 6,7 13 7 24 13 WSW 1023,0 67 0 0,0
15.01.2020 21:00:00 11,3 3,4 9,0 5,3 5,3 6,7 16 9 29 15 SW 1022,3 68 0 0,0
15.01.2020 20:00:00 10,6 2,9 7,7 5,2 5,4 6,7 14 8 20 11 SSW 1021,8 51 0 0,0
15.01.2020 19:00:00 10,9 2,8 8,4 5,5 5,4 6,7 13 7 20 11 SSW 1021,1 60 0 0,0
15.01.2020 18:00:00 10,5 2,6 5,1 5,4 5,4 6,8 11 6 16 9 SW 1020,5 48 0 0,0
15.01.2020 17:00:00 11,1 2,8 6,9 6,1 5,4 6,8 11 6 24 13 SW 1019,8 64 30 0,0
15.01.2020 16:00:00 12,3 2,6 9,7 6,8 5,3 6,8 18 10 31 17 SW 1018,9 73 60 0,0
15.01.2020 15:00:00 12,1 3,3 11,4 7,4 5,0 6,8 14 8 24 13 WSW 1018,5 71 50 0,0
15.01.2020 14:00:00 12,4 3,3 13,0 7,8 4,7 6,8 13 7 23 12 WSW 1018,2 58 53 0,0
15.01.2020 13:00:00 12,2 1,9 13,7 8,2 4,4 6,8 6 3 12 7 SW 1018,6 53 60 0,0
15.01.2020 12:00:00 8,8 1,9 11,3 7,3 4,1 6,8 4 2 8 5 E 1019,2 48 60 0,0
15.01.2020 11:00:00 6,0 1,0 9,3 5,9 3,9 6,8 5 3 9 5 E 1019,7 38 60 0,0
15.01.2020 10:00:00 4,1 0,6 6,5 4,0 3,9 6,7 6 3 8 5 E 1019,6 39 45 0,0
15.01.2020 09:00:00 3,2 0,9 2,1 2,0 4,0 6,7 6 3 9 5 E 1019,6 36 0 0,0
15.01.2020 08:00:00 3,4 1,1 0,4 2,2 4,1 6,7 6 3 9 5 ESE 1019,2 42 0 0,0
15.01.2020 07:00:00 3,7 1,4 0,2 2,8 4,2 6,7 5 3 8 5 E 1018,9 42 0 0,0
15.01.2020 06:00:00 4,2 1,4 2,9 3,3 4,2 6,7 6 3 8 5 E 1018,6 43 0 0,0
15.01.2020 05:00:00 4,8 1,3 3,7 3,1 4,3 6,7 5 3 10 5 E 1018,5 41 0 0,0
15.01.2020 04:00:00 4,5 1,3 3,0 3,0 4,4 6,7 4 2 8 5 E 1018,2 44 0 0,0
15.01.2020 03:00:00 4,1 1,4 1,0 2,9 4,5 6,8 5 3 9 5 E 1018,5 36 0 0,0
15.01.2020 02:00:00 5,2 1,7 2,5 3,3 4,6 6,8 6 3 10 5 E 1018,2 41 0 0,0
15.01.2020 01:00:00 5,4 1,9 2,8 3,7 4,7 6,8 4 2 9 5 ENE 1018,0 38 0 0,0
15.01.2020 00:00:00 6,1 2,0 3,7 3,9 4,8 6,8 6 4 9 5 SE 1017,8 41 0 0,0
14.01.2020 23:00:00 6,5 2,5 3,2 4,1 4,9 6,8 5 3 9 5 E 1017,3 44 0 0,0
14.01.2020 22:00:00 6,6 2,6 4,1 4,5 4,9 6,8 6 3 11 6 ENE 1017,1 38 0 0,0
14.01.2020 21:00:00 6,7 3,0 5,6 5,0 4,9 6,8 7 4 13 7 ESE 1017,4 35 0 0,0
14.01.2020 20:00:00 7,2 3,0 5,8 4,8 4,9 6,8 5 3 10 5 SSE 1017,1 42 0 0,0
14.01.2020 19:00:00 7,4 3,2 6,0 5,2 4,9 6,8 5 3 6 3 ESE 1017,1 36 0 0,0
14.01.2020 18:00:00 8,2 2,8 6,1 5,5 4,8 6,8 4 2 7 4 E 1016,6 52 0 0,0
14.01.2020 17:00:00 8,8 2,8 6,6 5,9 4,7 6,8 3 2 10 6 E 1016,1 42 0 0,0
14.01.2020 16:00:00 8,2 4,6 7,5 6,1 4,5 6,8 5 3 12 7 ESE 1016,1 32 0 0,0
14.01.2020 15:00:00 8,3 3,4 8,2 6,2 4,3 6,8 3 2 6 3 SSE 1015,9 44 0 0,0
14.01.2020 14:00:00 7,9 2,9 7,8 6,1 4,1 6,8 5 3 7 4 ESE 1016,0 41 0 0,0
14.01.2020 13:00:00 7,6 2,1 8,4 5,9 3,8 6,8 3 2 7 4 NE 1016,2 51 23 0,0
14.01.2020 12:00:00 6,5 2,4 7,9 5,0 3,6 6,8 5 3 10 5 ENE 1016,0 35 16 0,0
14.01.2020 11:00:00 4,0 1,4 4,2 3,6 3,6 6,8 5 3 10 5 E 1016,8 34 0 0,0
14.01.2020 10:00:00 2,5 0,9 2,9 2,7 3,6 6,8 6 3 11 6 E 1016,7 27 0 0,0
14.01.2020 09:00:00 1,9 0,6 2,6 1,8 3,7 6,8 5 3 13 7 E 1016,8 17 0 0,0
14.01.2020 08:00:00 1,6 0,7 -0,8 1,6 3,8 6,8 5 3 8 4 ESE 1016,3 17 0 0,0
14.01.2020 07:00:00 1,9 1,0 -0,4 2,1 3,9 6,8 6 3 9 5 ESE 1016,0 19 0 0,0
14.01.2020 06:00:00 2,3 1,4 0,9 2,3 4,0 6,8 6 3 13 7 ESE 1015,6 22 0 0,0
14.01.2020 05:00:00 2,4 1,6 0,9 2,6 4,0 6,8 9 5 14 7 E 1015,5 16 0 0,0
14.01.2020 04:00:00 2,5 2,1 2,1 2,7 4,1 6,8 5 3 9 5 E 1015,9 8 0 0,0
14.01.2020 03:00:00 3,0 2,4 1,9 2,6 4,2 6,8 6 4 8 5 ESE 1016,6 8 0 0,0
14.01.2020 02:00:00 3,2 2,8 1,2 2,7 4,3 6,8 6 3 19 10 E 1016,5 10 0 0,0
14.01.2020 01:00:00 3,0 2,6 1,0 3,1 4,4 6,8 8 5 12 7 E 1017,1 3,3 0 0,0
14.01.2020 00:00:00 3,9 3,5 3,2 3,6 4,4 6,8 6 3 10 5 E 1017,9 7 0 0,0
13.01.2020 23:00:00 3,6 3,4 3,2 3,5 4,5 6,8 7 4 11 6 ESE 1017,7 5 0 0,0
13.01.2020 22:00:00 3,5 3,2 2,9 3,5 4,6 6,8 6 3 12 7 E 1018,3 4,6 0 0,0
13.01.2020 21:00:00 3,5 3,1 2,0 3,7 4,7 6,8 6 3 9 5 E 1018,9 4,1 0 0,0
13.01.2020 20:00:00 4,3 3,6 2,7 4,0 4,8 6,8 6 3 10 5 ESE 1019,4 13 0 0,0
13.01.2020 19:00:00 4,8 3,9 2,3 4,5 4,8 6,8 8 4 13 7 SE 1019,5 20 0 0,0
13.01.2020 18:00:00 6,1 4,3 5,3 5,2 4,8 6,8 5 3 18 10 W 1020,4 28 0 0,0
13.01.2020 17:00:00 6,1 4,4 4,7 5,5 4,7 6,8 5 3 9 5 SW 1020,3 29 1 0,0
13.01.2020 16:00:00 6,6 4,3 6,6 6,1 4,5 6,8 6 3 11 6 SE 1020,0 29 9 0,0
13.01.2020 15:00:00 6,4 4,2 6,9 6,1 4,3 6,8 5 3 10 5 E 1020,6 20 14 0,0
13.01.2020 14:00:00 5,7 4,0 6,7 5,6 4,2 6,8 3 2 8 4 E 1021,6 14 0 0,0
13.01.2020 13:00:00 5,3 3,8 5,8 5,2 4,0 6,8 3 1 5 3 NNW 1022,5 13 0 0,0
13.01.2020 12:00:00 5,0 3,8 5,6 4,8 3,9 6,8 4 2 8 4 E 1023,2 10 0 0,0
13.01.2020 11:00:00 4,3 3,2 4,7 4,0 3,8 6,8 2 1 6 3 E 1024,3 4,6 0 0,0
13.01.2020 10:00:00 3,9 2,8 4,0 3,6 3,8 6,8 0 0 9 5 N 1024,6 13 0 0,0
13.01.2020 09:00:00 3,5 2,7 3,4 3,4 3,8 6,8 5 3 7 4 E 1024,8 9 0 0,0
13.01.2020 08:00:00 3,4 2,5 3,3 3,4 3,7 6,8 4 2 6 3 E 1024,9 10 0 0,0
13.01.2020 07:00:00 3,6 2,5 3,4 3,3 3,7 6,8 4 2 10 6 E 1025,4 14 0 0,0
13.01.2020 06:00:00 4,1 2,1 3,6 3,3 3,7 6,8 7 4 12 6 SSW 1025,8 29 0 0,0
13.01.2020 05:00:00 4,3 2,1 3,7 3,3 3,6 6,8 7 4 16 9 WSW 1026,4 33 0 0,0
13.01.2020 04:00:00 4,2 2,2 3,6 3,2 3,6 6,8 9 5 17 9 SW 1026,8 26 0 0,0
13.01.2020 03:00:00 4,0 1,9 3,3 3,1 3,6 6,8 9 5 16 9 SW 1027,4 34 0 0,0
13.01.2020 02:00:00 3,6 2,3 3,1 3,1 3,5 6,8 3 2 6 3 ESE 1027,8 23 0 0,0
13.01.2020 01:00:00 3,9 2,1 3,2 3,0 3,5 6,8 5 3 12 6 W 1028,2 32 0 0,0
13.01.2020 00:00:00 3,3 2,2 2,9 2,9 3,4 6,8 0 0 9 5 N 1028,3 19 0 0,0
12.01.2020 23:00:00 3,4 2,2 2,9 2,8 3,4 6,8 6 4 15 8 WSW 1028,2 21 0 0,0
12.01.2020 22:00:00 3,0 1,9 2,7 2,7 3,4 6,8 6 3 13 7 S 1028,4 21 0 0,0
12.01.2020 21:00:00 3,2 1,8 2,7 2,7 3,3 6,8 6 4 20 11 SW 1028,5 5 0 0,0
12.01.2020 20:00:00 3,7 0,8 3,1 2,6 3,3 6,8 11 6 23 12 WSW 1028,4 19 0 0,0
12.01.2020 19:00:00 3,7 0,3 3,2 2,5 3,2 6,8 10 5 16 9 WSW 1028,4 37 0 0,0
12.01.2020 18:00:00 3,6 0,2 3,1 2,4 3,2 6,8 10 6 29 15 WSW 1028,0 38 0 0,0
12.01.2020 17:00:00 3,5 0,0 3,1 2,4 3,1 6,8 16 9 34 19 WSW 1027,6 38 0 0,0
12.01.2020 16:00:00 3,5 0,2 3,3 2,3 3,0 6,8 16 9 29 16 WSW 1027,7 37 1 0,0
12.01.2020 15:00:00 3,1 0,0 2,9 1,9 3,0 6,8 16 9 35 19 WSW 1028,0 36 0 0,0
12.01.2020 14:00:00 3,0 0,0 2,7 1,6 3,0 6,8 17 9 35 19 WSW 1028,3 32 0 0,0
12.01.2020 13:00:00 2,6 0,2 2,3 1,3 3,0 6,8 16 8 23 12 WSW 1028,5 26 0 0,0

tt = temperature
td = dewpoint
tt 5cm = temperature 5cm
tt -5cm = temperature -5cm
tt -20cm = temperature -20cm
tt -100cm = temperature -100cm
ff = wind speed
fx = gusts
dd = wind direction
ppp = reduced air pressure
vv = visibility
sd = sunshine duration
rr = precipitation

Next stations